Location: Lake Crest
(37.6062°N, 88.9176°W)
Time: 06:47:11
(UTC+00:00)

SJ-12 - Pass Details

Date: 15 December 2019
Orbit: 568 x 586 km, 97.6° (Epoch: 19 January)

Event Time Altitude Azimuth Distance (km) Brightness Sun altitude
Rises 11:09:39 0° 11° (N) 2,801 7.4 -21.8°
Reaches altitude 10° 11:11:49 10° 11° (N) 1,895 6.5 -21.3°
Maximum altitude 11:15:56 86° 284° (WNW) 581 3.8 -20.5°
Drops below altitude 10° 11:19:59 10° 195° (SSW) 1,870 6.5 -19.8°
Sets 11:22:07 0° 194° (SSW) 2,760 7.4 -19.4°
